Weather reports worldwide

Advertisment
Malmo/Sturup, Sweden (2636): temperature & dewpoint: 11.10.2019 23:00:00 - 17.10.2019 23:00:00 (CEST)Malmo/Sturup, Sweden (2636): wind speed: 11.10.2019 23:00:00 - 17.10.2019 23:00:00 (CEST)Malmo/Sturup, Sweden (2636): wind direction: 11.10.2019 23:00:00 - 17.10.2019 23:00:00 (CEST)Malmo/Sturup, Sweden (2636): reduced air pressure: 11.10.2019 23:00:00 - 17.10.2019 23:00:00 (CEST)Malmo/Sturup, Sweden (2636): visibility: 11.10.2019 23:00:00 - 17.10.2019 23:00:00 (CEST)
Date & Time tt [°C] td [°C] ff [km/h] ff [kn] dd ppp [hPa] vv [km]
17.10.2019 23:00:00 13,1 12,6 9 5 SW 1011,3 3,4
17.10.2019 22:00:00 13,2 12,7 15 8 SW 1011,3 4,4
17.10.2019 21:00:00 13,3 12,8 15 8 SW 1011,0 5
17.10.2019 20:00:00 13,2 13,0 18 10 SW 1010,7 3,0
17.10.2019 19:00:00 13,4 13,2 15 8 SW 1010,5 4,0
17.10.2019 18:00:00 13,4 13,2 16 9 SW 1010,1 4,5
17.10.2019 17:00:00 13,3 12,8 18 10 SW 1009,8 8
17.10.2019 16:00:00 13,1 12,6 18 10 SW 1009,4 5
17.10.2019 15:00:00 13,4 12,9 21 11 SSW 1009,2 8
17.10.2019 14:00:00 12,7 12,2 21 11 SW 1009,0 4,0
17.10.2019 13:00:00 12,9 12,7 21 11 SSW 1009,0 2,8
17.10.2019 12:00:00 12,7 12,5 16 9 S 1009,1 4,0
17.10.2019 11:00:00 12,1 11,9 15 8 S 1009,0 4,5
17.10.2019 10:00:00 11,7 11,5 13 7 SSE 1009,0 4,6
17.10.2019 09:00:00 11,1 10,9 9 5 SSE 1008,9 2,6
17.10.2019 08:00:00 10,8 10,6 8 4 SSE 1008,6 2,0
17.10.2019 07:00:00 10,3 10,1 11 6 S 1008,6 0,4
17.10.2019 06:00:00 10,3 10,1 5 3 S 1008,5 0,1
17.10.2019 05:00:00 10,9 10,7 8 4 WSW 1008,6 1,5
17.10.2019 04:00:00 11,6 11,1 11 6 W 1008,5 5
17.10.2019 03:00:00 11,3 10,8 11 6 W 1008,4 5
17.10.2019 02:00:00 12,3 11,5 21 11 W 1008,0 7
17.10.2019 01:00:00 12,4 11,9 16 9 W 1007,5 6
17.10.2019 00:00:00 12,0 11,5 18 10 W 1007,1 10
16.10.2019 23:00:00 12,2 11,7 16 9 W 1006,9 10
16.10.2019 22:00:00 12,1 11,6 18 10 W 1006,3 10
16.10.2019 21:00:00 12,2 12,0 15 8 W 1005,8 8
16.10.2019 20:00:00 11,9 11,7 15 8 WNW 1005,5 8
16.10.2019 19:00:00 11,7 11,5 11 6 W 1005,1 5
16.10.2019 18:00:00 11,5 11,3 15 8 WNW 1005,0 5
16.10.2019 17:00:00 11,8 11,6 11 6 NW 1004,6 5
16.10.2019 16:00:00 11,3 11,1 15 8 WNW 1004,7 1,0
16.10.2019 15:00:00 11,9 11,7 9 5 WNW 1004,4 1,3
16.10.2019 14:00:00 11,7 11,5 9 5 NNW 1004,2 5
16.10.2019 13:00:00 11,5 11,3 9 5 NNW 1004,1 1,7
16.10.2019 12:00:00 10,9 10,7 8 4 N 1004,5 0,5
16.10.2019 11:00:00 10,4 10,2 8 4 NNW 1004,8 0,5
16.10.2019 10:00:00 10,4 10,2 0 0 N 1004,6 1,4
16.10.2019 09:00:00 10,2 10,0 4 2 - 1004,6 0,3
16.10.2019 08:00:00 10,3 10,1 4 2 - 1004,2 0,9
16.10.2019 07:00:00 10,3 10,1 8 4 NNE 1004,3 0,3
16.10.2019 06:00:00 10,5 10,3 8 4 NNE 1004,7 0,1
16.10.2019 05:00:00 10,5 10,3 5 3 N 1005,2 0,1
16.10.2019 04:00:00 10,5 10,3 4 2 NNE 1005,6 0,1
16.10.2019 03:00:00 10,7 10,5 5 3 NE 1005,6 0,1
16.10.2019 02:00:00 10,6 10,4 5 3 NNE 1005,6 0,1
16.10.2019 01:00:00 10,5 10,3 7 4 ENE 1006,0 -
16.10.2019 00:00:00 10,8 10,6 9 5 ENE 1006,4 0,2
15.10.2019 23:00:00 10,6 10,4 9 5 ENE 1006,6 0,1
15.10.2019 22:00:00 10,8 10,6 5 3 - 1007,2 0,1
15.10.2019 21:00:00 11,1 10,9 11 6 E 1007,2 0,5
15.10.2019 20:00:00 11,4 10,9 13 7 E 1007,4 3,5
15.10.2019 19:00:00 11,9 11,1 11 6 E 1007,2 9
15.10.2019 18:00:00 13,2 11,9 15 8 E 1006,9 8
15.10.2019 17:00:00 13,7 11,9 13 7 SE 1006,9 10
15.10.2019 16:00:00 14,6 12,3 13 7 ESE 1007,2 10
15.10.2019 15:00:00 15,1 12,2 16 9 ESE 1007,5 10
15.10.2019 14:00:00 14,7 11,8 21 11 SE 1008,1 10
15.10.2019 13:00:00 14,9 11,5 28 15 ESE 1008,7 10
15.10.2019 12:00:00 14,6 11,2 24 13 ESE 1009,1 10
15.10.2019 11:00:00 13,7 9,9 28 15 ESE 1009,6 10
15.10.2019 10:00:00 12,7 8,6 28 15 ESE 1009,9 10
15.10.2019 09:00:00 11,0 9,3 28 15 E 1010,6 10
15.10.2019 08:00:00 10,4 8,8 29 16 E 1011,4 10
15.10.2019 07:00:00 10,3 8,7 31 17 ESE 1011,8 10
15.10.2019 06:00:00 10,2 8,8 28 15 E 1012,5 10
15.10.2019 05:00:00 9,6 8,0 11 6 E 1014,4 10
15.10.2019 04:00:00 9,6 7,5 16 9 E 1014,8 10
15.10.2019 03:00:00 9,1 7,2 18 10 E 1014,1 10
15.10.2019 02:00:00 9,2 7,0 4 2 - 1015,6 10
15.10.2019 01:00:00 9,1 6,7 13 7 E 1015,4 10
15.10.2019 00:00:00 9,3 6,7 13 7 ENE 1016,0 10
14.10.2019 23:00:00 8,5 7,4 8 4 E 1015,7 10
14.10.2019 22:00:00 8,1 7,3 4 2 - 1016,4 10
14.10.2019 21:00:00 8,7 7,5 4 2 SW 1016,4 10
14.10.2019 20:00:00 9,2 7,0 5 3 NNW 1016,1 10
14.10.2019 19:00:00 8,5 6,1 9 5 NW 1016,0 10
14.10.2019 18:00:00 10,8 6,5 13 7 WNW 1015,7 10
14.10.2019 17:00:00 11,4 6,9 18 10 NW 1015,2 10
14.10.2019 16:00:00 12,0 6,7 24 13 WNW 1014,7 10
14.10.2019 15:00:00 12,5 6,8 29 16 WNW 1014,1 10
14.10.2019 14:00:00 12,4 6,9 29 16 W 1013,9 10
14.10.2019 13:00:00 12,5 7,6 31 17 W 1013,3 10
14.10.2019 12:00:00 13,4 7,6 31 17 W 1012,2 10
14.10.2019 11:00:00 12,6 7,9 35 19 W 1011,1 10
14.10.2019 10:00:00 12,8 8,5 37 20 W 1010,0 10
14.10.2019 09:00:00 13,1 8,8 34 18 WSW 1008,6 10
14.10.2019 08:00:00 13,3 9,5 31 17 WSW 1007,2 10
14.10.2019 07:00:00 13,4 9,8 31 17 WSW 1006,5 10
14.10.2019 06:00:00 14,1 10,9 31 17 WSW 1006,4 10
14.10.2019 05:00:00 14,5 12,2 26 14 WSW 1005,8 10
14.10.2019 04:00:00 15,3 13,7 24 13 WSW 1005,2 10
14.10.2019 03:00:00 16,4 14,4 28 15 SW 1004,6 10
14.10.2019 02:00:00 16,3 14,3 26 14 SW 1003,8 10
14.10.2019 01:00:00 17,0 14,6 29 16 SW 1004,0 10
14.10.2019 00:00:00 17,1 14,7 35 19 SSW 1003,7 10
13.10.2019 23:00:00 16,1 15,1 26 14 S 1004,0 10
13.10.2019 22:00:00 14,2 14,0 22 12 SSE 1004,4 5
13.10.2019 21:00:00 11,9 11,4 24 13 SE 1005,6 6
13.10.2019 20:00:00 11,2 10,7 26 14 ESE 1007,5 10
13.10.2019 19:00:00 10,7 9,9 21 11 ESE 1008,7 10
13.10.2019 18:00:00 11,0 10,2 15 8 ESE 1010,1 10
13.10.2019 17:00:00 11,3 9,7 11 6 ESE 1011,0 10
13.10.2019 16:00:00 11,8 11,0 13 7 SSE 1011,6 10
13.10.2019 15:00:00 12,2 10,4 9 5 S 1011,8 10
13.10.2019 14:00:00 12,2 10,4 11 6 S 1012,3 10
13.10.2019 13:00:00 12,5 10,7 8 4 SSW 1012,0 10
13.10.2019 12:00:00 12,5 10,9 11 6 SW 1012,6 10
13.10.2019 11:00:00 12,3 11,4 9 5 SW 1012,1 10
13.10.2019 10:00:00 11,7 10,9 9 5 SW 1012,1 8
13.10.2019 09:00:00 11,4 10,9 8 4 SW 1011,6 8
13.10.2019 08:00:00 11,0 10,5 11 6 SW 1011,1 9
13.10.2019 07:00:00 11,0 10,5 13 7 WSW 1010,5 10
13.10.2019 06:00:00 11,1 10,6 11 6 WSW 1010,3 8
13.10.2019 05:00:00 10,6 10,1 11 6 WSW 1010,3 10
13.10.2019 04:00:00 10,7 9,9 11 6 WSW 1010,1 10
13.10.2019 03:00:00 11,1 10,3 11 6 WSW 1009,9 10
13.10.2019 02:00:00 10,9 10,1 15 8 WSW 1009,6 10
13.10.2019 01:00:00 11,0 10,2 15 8 WSW 1009,3 10
13.10.2019 00:00:00 11,7 10,8 18 10 WSW 1008,9 10
12.10.2019 23:00:00 11,5 10,6 21 11 WSW 1008,3 10
12.10.2019 22:00:00 11,8 10,5 18 10 WSW 1008,0 10
12.10.2019 21:00:00 11,9 10,1 26 14 WSW 1007,6 10
12.10.2019 20:00:00 11,7 10,1 26 14 WSW 1007,1 10
12.10.2019 19:00:00 11,9 10,1 28 15 SW 1006,7 10
12.10.2019 18:00:00 11,9 10,3 26 14 SW 1006,3 10
12.10.2019 17:00:00 12,6 10,1 29 16 SW 1005,9 10
12.10.2019 16:00:00 12,9 10,1 26 14 SW 1005,5 10
12.10.2019 15:00:00 12,9 10,4 26 14 WSW 1005,4 10
12.10.2019 14:00:00 12,9 10,1 28 15 WSW 1005,0 10
12.10.2019 13:00:00 12,5 10,4 29 16 WSW 1004,7 10
12.10.2019 12:00:00 12,2 9,9 29 16 WSW 1004,3 10
12.10.2019 11:00:00 12,1 9,1 28 15 WSW 1003,7 10
12.10.2019 10:00:00 11,8 9,5 26 14 WSW 1002,9 10
12.10.2019 09:00:00 11,8 10,2 22 12 SW 1002,4 10
12.10.2019 08:00:00 12,1 11,0 18 10 WSW 1001,6 10
12.10.2019 07:00:00 12,5 11,6 22 12 WSW 1000,9 10
12.10.2019 06:00:00 12,5 11,7 18 10 W 1000,7 10
12.10.2019 05:00:00 12,4 11,6 21 11 WSW 1000,2 10
12.10.2019 04:00:00 12,7 11,9 24 13 WSW 999,3 10
12.10.2019 03:00:00 12,8 12,2 28 15 WSW 999,7 10
12.10.2019 02:00:00 12,9 12,0 28 15 SW 999,2 10
12.10.2019 01:00:00 12,9 12,4 28 15 W 999,4 10
12.10.2019 00:00:00 13,0 12,5 37 20 WSW 999,2 5
11.10.2019 23:00:00 13,1 12,5 37 20 SW 998,7 6

tt = temperature
td = dewpoint
ff = wind speed
dd = wind direction
ppp = reduced air pressure
vv = visibility

Next stations